Location: Unspecified
(48.8656°N, 0.0000°E)
Time: 20:50:03
(UTC+00:00)

Vanguard 3 - Pass Details

Date: 23 June 2019
Orbit: 508 x 3263 km, 33.3° (Epoch: 21 August)

Event Time Altitude Azimuth Distance (km) Brightness Sun altitude
Rises 15:16:00 0° 259° (WSW) 4,550 11.8 44.4°
Reaches altitude 10° 15:21:23 10° 236° (SW) 2,940 11.0 43.6°
Maximum altitude 15:24:22 13° 209° (SSW) 2,376 10.2 43.1°
Drops below altitude 10° 15:26:51 10° 182° (S) 2,335 9.8 42.7°
Sets 15:30:10 0° 153° (SSE) 2,940 9.9 42.2°
